| time (UTC) | temp C | wind direction | speed KPH | gust KPH | rain 1hr cm | rain 24hr cm | rain mn cm | humidity % | barometer mb |
| 20260509011555 | 12 | 158 | 0.0 | 0.0 | 0.00 | 0.18 | 0.18 | 68 | 1005.9 |
| 20260509010054 | 12 | 158 | 0.0 | 0.0 | 0.00 | 0.18 | 0.18 | 71 | 1005.7 |
| 20260509004555 | 13 | 158 | 0.0 | 0.0 | 0.00 | 0.18 | 0.18 | 70 | 1005.6 |
| 20260509003054 | 14 | 158 | 0.0 | 0.0 | 0.00 | 0.18 | 0.18 | 66 | 1005.5 |
| 20260509001554 | 15 | 158 | 0.0 | 1.6 | 0.00 | 0.18 | 0.18 | 64 | 1005.5 |
| 20260509000104 | 15 | 150 | 0.0 | 1.6 | 0.00 | 0.18 | 0.18 | 64 | 1005.5 |
| 20260508234554 | 15 | 155 | 0.0 | 3.2 | 0.00 | 0.18 | 0.18 | 64 | 1005.4 |
| 20260508233051 | 16 | 174 | 0.0 | 4.8 | 0.00 | 0.18 | 0.18 | 60 | 1005.5 |
| 20260508231551 | 16 | 221 | 0.0 | 11.3 | 0.00 | 0.18 | 0.18 | 57 | 1005.5 |
| 20260508230049 | 16 | 127 | 0.0 | 9.7 | 0.00 | 0.18 | 0.18 | 54 | 1005.5 |
| 20260508224554 | 17 | 226 | 1.6 | 11.3 | 0.00 | 0.18 | 0.18 | 41 | 1005.6 |
| 20260508223046 | 17 | 152 | 0.0 | 4.8 | 0.00 | 0.18 | 0.18 | 40 | 1005.6 |
| 20260508221546 | 17 | 262 | 0.0 | 6.4 | 0.00 | 0.18 | 0.18 | 43 | 1005.6 |
| 20260508220046 | 17 | 107 | 0.0 | 4.8 | 0.00 | 0.18 | 0.18 | 37 | 1005.8 |
| 20260508214549 | 18 | 106 | 0.0 | 8.0 | 0.00 | 0.18 | 0.18 | 37 | 1005.8 |
| 20260508213050 | 17 | 98 | 0.0 | 9.7 | 0.00 | 0.18 | 0.18 | 39 | 1006.0 |
| 20260508211542 | 18 | 207 | 0.0 | 6.4 | 0.00 | 0.18 | 0.18 | 39 | 1006.0 |
| 20260508210043 | 18 | 157 | 1.6 | 8.0 | 0.00 | 0.18 | 0.18 | 37 | 1006.2 |
| 20260508204541 | 18 | 89 | 1.6 | 4.8 | 0.00 | 0.18 | 0.18 | 37 | 1006.2 |
| 20260508203045 | 18 | 113 | 0.0 | 8.0 | 0.00 | 0.18 | 0.18 | 36 | 1006.5 |
| 20260508201538 | 18 | 138 | 1.6 | 9.7 | 0.00 | 0.18 | 0.18 | 38 | 1006.9 |
| 20260508200039 | 18 | 131 | 3.2 | 12.9 | 0.00 | 0.18 | 0.18 | 38 | 1006.9 |
| 20260508194529 | 17 | 93 | 4.8 | 11.3 | 0.00 | 0.18 | 0.18 | 38 | 1007.4 |
| 20260508193025 | 18 | 25 | 0.0 | 9.7 | 0.00 | 0.18 | 0.18 | 39 | 1007.6 |
| 20260508191527 | 17 | 124 | 0.0 | 4.8 | 0.00 | 0.18 | 0.18 | 37 | 1007.8 |
| 20260508190025 | 17 | 190 | 0.0 | 3.2 | 0.00 | 0.18 | 0.18 | 38 | 1008.1 |
| 20260508184520 | 17 | 286 | 1.6 | 12.9 | 0.00 | 0.18 | 0.18 | 39 | 1008.3 |
| 20260508183018 | 17 | 180 | 1.6 | 6.4 | 0.00 | 0.18 | 0.18 | 37 | 1008.5 |
| 20260508181538 | 17 | 260 | 0.0 | 6.4 | 0.00 | 0.18 | 0.18 | 40 | 1008.6 |
| 20260508180015 | 17 | 285 | 0.0 | 8.0 | 0.00 | 0.18 | 0.18 | 35 | 1008.8 |
| 20260508174516 | 17 | 195 | 1.6 | 11.3 | 0.00 | 0.18 | 0.18 | 39 | 1009.1 |
| 20260508173008 | 16 | 246 | 0.0 | 4.8 | 0.00 | 0.18 | 0.18 | 39 | 1009.5 |
| 20260508171505 | 16 | 65 | 1.6 | 8.0 | 0.00 | 0.18 | 0.18 | 38 | 1009.7 |
| 20260508170002 | 15 | 79 | 0.0 | 8.0 | 0.00 | 0.18 | 0.18 | 40 | 1009.8 |
| 20260508164613 | 15 | 284 | 0.0 | 9.7 | 0.00 | 0.18 | 0.18 | 40 | 1010.2 |
| 20260508163057 | 15 | 129 | 3.2 | 8.0 | 0.00 | 0.18 | 0.18 | 40 | 1010.2 |
| 20260508161555 | 15 | 156 | 0.0 | 6.4 | 0.00 | 0.18 | 0.18 | 44 | 1010.5 |
| 20260508160055 | 15 | 131 | 1.6 | 8.0 | 0.00 | 0.18 | 0.18 | 45 | 1010.5 |
| 20260508154555 | 14 | 129 | 1.6 | 4.8 | 0.00 | 0.18 | 0.18 | 47 | 1010.7 |
| 20260508153046 | 13 | 355 | 0.0 | 4.8 | 0.00 | 0.18 | 0.18 | 49 | 1010.8 |
| 20260508151543 | 12 | 113 | 0.0 | 3.2 | 0.00 | 0.18 | 0.18 | 52 | 1010.9 |
| 20260508150043 | 12 | 143 | 0.0 | 8.0 | 0.00 | 0.18 | 0.18 | 58 | 1011.0 |
| 20260508144543 | 12 | 110 | 0.0 | 3.2 | 0.00 | 0.18 | 0.18 | 58 | 1011.1 |
| 20260508143040 | 12 | 43 | 0.0 | 3.2 | 0.00 | 0.18 | 0.18 | 61 | 1011.2 |
| 20260508141548 | 12 | 165 | 0.0 | 3.2 | 0.00 | 0.18 | 0.18 | 57 | 1011.4 |
| 20260508140038 | 11 | 169 | 0.0 | 3.2 | 0.00 | 0.18 | 0.18 | 66 | 1011.5 |
| 20260508134536 | 11 | 162 | 0.0 | 4.8 | 0.00 | 0.18 | 0.18 | 69 | 1011.5 |
| 20260508133034 | 11 | 208 | 0.0 | 1.6 | 0.00 | 0.18 | 0.18 | 71 | 1011.7 |
| 20260508131532 | 11 | 136 | 0.0 | 1.6 | 0.00 | 0.18 | 0.18 | 73 | 1011.7 |
| 20260508130028 | 9 | 204 | 0.0 | 1.6 | 0.00 | 0.18 | 0.18 | 80 | 1011.7 |
| 20260508124524 | 8 | 181 | 0.0 | 4.8 | 0.00 | 0.18 | 0.18 | 81 | 1011.5 |
| 20260508123023 | 7 | 54 | 0.0 | 0.0 | 0.00 | 0.18 | 0.18 | 91 | 1011.4 |
| 20260508121523 | 7 | 56 | 0.0 | 0.0 | 0.00 | 0.18 | 0.18 | 96 | 1011.4 |
| 20260508120029 | 6 | 55 | 0.0 | 0.0 | 0.00 | 0.18 | 0.18 | 97 | 1011.2 |
| 20260508114521 | 5 | 55 | 0.0 | 0.0 | 0.00 | 0.18 | 0.18 | 97 | 1011.1 |
| 20260508113020 | 3 | 56 | 0.0 | 0.0 | 0.00 | 0.18 | 0.18 | 96 | 1010.9 |
| 20260508111519 | 2 | 56 | 0.0 | 0.0 | 0.03 | 0.18 | 0.18 | 96 | 1010.7 |
| 20260508110018 | 2 | 55 | 0.0 | 0.0 | 0.03 | 0.18 | 0.18 | 96 | 1010.6 |
| 20260508104518 | 2 | 56 | 0.0 | 0.0 | 0.03 | 0.18 | 0.18 | 96 | 1010.6 |
| 20260508103027 | 2 | 55 | 0.0 | 0.0 | 0.03 | 0.18 | 0.18 | 96 | 1010.6 |
| 20260508101521 | 3 | 55 | 0.0 | 0.0 | 0.00 | 0.15 | 0.15 | 96 | 1010.6 |
| 20260508100014 | 3 | 56 | 0.0 | 0.0 | 0.00 | 0.15 | 0.15 | 96 | 1010.6 |
| 20260508094512 | 3 | 55 | 0.0 | 0.0 | 0.00 | 0.15 | 0.15 | 96 | 1010.6 |
| 20260508093011 | 3 | 56 | 0.0 | 0.0 | 0.00 | 0.15 | 0.15 | 96 | 1010.7 |
| 20260508091508 | 3 | 55 | 0.0 | 0.0 | 0.00 | 0.15 | 0.15 | 96 | 1010.7 |
| 20260508090007 | 4 | 56 | 0.0 | 0.0 | 0.00 | 0.15 | 0.15 | 96 | 1010.8 |
| 20260508084505 | 4 | 56 | 0.0 | 0.0 | 0.00 | 0.15 | 0.15 | 96 | 1010.7 |
| 20260508083002 | 5 | 55 | 0.0 | 0.0 | 0.00 | 0.15 | 0.15 | 96 | 1010.7 |
| 20260508081502 | 5 | 56 | 0.0 | 0.0 | 0.00 | 0.15 | 0.15 | 96 | 1010.7 |
| 20260508080001 | 5 | 55 | 0.0 | 0.0 | 0.00 | 0.15 | 0.15 | 96 | 1010.7 |
| 20260508074501 | 5 | 55 | 0.0 | 0.0 | 0.00 | 0.15 | 0.15 | 96 | 1010.8 |
| 20260508073100 | 5 | 56 | 0.0 | 0.0 | 0.00 | 0.15 | 0.15 | 96 | 1010.9 |
| 20260508071558 | 5 | 55 | 0.0 | 0.0 | 0.00 | 0.15 | 0.15 | 95 | 1010.9 |
| 20260508070058 | 5 | 55 | 0.0 | 0.0 | 0.00 | 0.15 | 0.15 | 95 | 1010.9 |
| 20260508064601 | 5 | 56 | 0.0 | 0.0 | 0.00 | 0.15 | 0.15 | 95 | 1010.7 |
| 20260508063056 | 5 | 55 | 0.0 | 0.0 | 0.00 | 0.15 | 0.15 | 95 | 1010.8 |
| 20260508061557 | 5 | 56 | 0.0 | 0.0 | 0.00 | 0.15 | 0.15 | 95 | 1010.8 |
| 20260508060052 | 5 | 55 | 0.0 | 0.0 | 0.00 | 0.15 | 0.15 | 94 | 1010.9 |
| 20260508054600 | 5 | 55 | 0.0 | 0.0 | 0.00 | 0.15 | 0.15 | 94 | 1011.0 |
| 20260508053047 | 5 | 56 | 0.0 | 0.0 | 0.00 | 0.15 | 0.15 | 93 | 1011.0 |
| 20260508051551 | 5 | 56 | 0.0 | 0.0 | 0.05 | 0.15 | 0.15 | 92 | 1011.0 |
| 20260508050040 | 6 | 55 | 0.0 | 0.0 | 0.15 | 0.15 | 0.15 | 92 | 1011.0 |
| 20260508044538 | 6 | 56 | 0.0 | 0.0 | 0.15 | 0.15 | 0.15 | 91 | 1011.1 |
| 20260508043034 | 6 | 56 | 0.0 | 1.6 | 0.15 | 0.15 | 0.15 | 87 | 1011.2 |
| 20260508041530 | 8 | 263 | 0.0 | 1.6 | 0.08 | 0.08 | 0.08 | 79 | 1011.7 |
| 20260508040035 | 8 | 155 | 0.0 | 0.0 | 0.00 | 0.00 | 0.00 | 75 | 1011.1 |
| 20260508034529 | 8 | 155 | 0.0 | 0.0 | 0.00 | 0.00 | 0.00 | 71 | 1010.8 |
| 20260508033025 | 8 | 155 | 0.0 | 0.0 | 0.00 | 0.00 | 0.00 | 66 | 1010.8 |
| 20260508031530 | 8 | 155 | 0.0 | 0.0 | 0.00 | 0.00 | 0.00 | 61 | 1010.9 |
| 20260508030024 | 9 | 155 | 0.0 | 0.0 | 0.00 | 0.00 | 0.00 | 63 | 1011.2 |
| 20260508024625 | 8 | 155 | 0.0 | 0.0 | 0.00 | 0.00 | 0.00 | 60 | 1011.4 |
| 20260508023028 | 8 | 156 | 0.0 | 0.0 | 0.00 | 0.00 | 0.00 | 65 | 1011.1 |
| 20260508021522 | 8 | 224 | 0.0 | 0.0 | 0.00 | 0.00 | 0.00 | 60 | 1011.0 |
| 20260508020021 | 8 | 289 | 0.0 | 0.0 | 0.00 | 0.00 | 0.00 | 62 | 1011.0 |
| 20260508014540 | 8 | 289 | 0.0 | 0.0 | 0.00 | 0.00 | 0.00 | 61 | 1010.9 |
| 20260508013020 | 8 | 290 | 0.0 | 0.0 | 0.00 | 0.00 | 0.00 | 58 | 1010.9 |